Retour au catalogue

SHIYAN 26C

ActifScienceSSO
NORAD 61903·PAYLOAD·🇨🇳 China
Ce nom de satellite n'a pas encore été confirmé par des sources officielles.

Lancé Nov 11, 2024 depuis Jiuquan Satellite Launch Center

Loading…

Prochains Passages (prochaines 24 heures)

TLE

FraisSource: Space-Track

Époque: Sep 14, 2026, 13:11 UTC

1 61903U 24205K   26257.54945111  .00011270  00000-0  35677-3 0  9996
2 61903  97.4037 334.5083 0010469  82.5044 277.7387 15.32868573102327

Suivez SHIYAN 26C en temps réel avec AllMySat

Download on the App Store